Visibility
15.0 15.0 9.5 15.0 15.0 13.1 11.4 11.8 4.3 12.4 4.7 3.2 8.8 5.2 8.3 15.0 15.0 15.0 15.0 15.0 15.0 15.0 15.0 15.0 15.0 15.0 15.0 15.0 15.0 15.0 15.0 15.0 15.0 14.9 12.0 13.3 15.0 15.0 15.0 15.0 15.0 15.0 15.0
15.0 11.8 15.0 15.0 15.0 15.0 13.3 8.8 7.8 2.9 4.1 3.3 14.4 6.9 11.2 10.8 15.0 15.0 15.0 15.0 15.0 15.0 15.0 15.0 15.0 15.0 15.0 15.0 15.0 15.0 15.0 15.0 15.0 15.0 15.0 15.0 15.0 15.0 14.8 15.0 15.0 15.0 15.0
8.6 10.5 13.2 9.7 14.1 9.8 7.4 6.7 5.7 6.1 2.2 5.3 5.8 6.0 11.2 15.0 15.0 15.0 15.0 15.0 15.0 15.0 15.0 15.0 15.0 15.0 15.0 15.0 15.0 15.0 15.0 15.0 15.0 15.0 15.0 15.0 15.0 15.0 15.0 15.0 15.0 15.0 15.0
3.9 4.4 10.0 8.9 9.9 4.8 9.2 14.3 14.6 15.0 3.0 3.0 4.4 15.0 15.0 15.0 15.0 15.0 15.0 15.0 15.0 15.0 15.0 15.0 15.0 15.0 15.0 15.0 15.0 15.0 15.0 15.0 15.0 15.0 15.0 15.0 15.0 15.0 15.0 15.0 15.0 15.0 15.0
1.3 6.4 1.4 4.1 11.5 14.8 15.0 15.0 15.0 10.8 9.9 6.9 15.0 15.0 15.0 15.0 15.0 15.0 15.0 15.0 15.0 15.0 15.0 15.0 15.0 15.0 15.0 15.0 15.0 15.0 15.0 15.0 15.0 15.0 15.0 15.0 15.0 15.0 15.0 15.0 15.0 15.0 15.0
0.0 0.0 0.1 0.3 0.6 15.0 15.0 9.7 4.7 8.6 4.5 15.0 15.0 15.0 15.0 15.0 15.0 15.0 15.0 15.0 15.0 15.0 15.0 15.0 15.0 15.0 15.0 15.0 15.0 15.0 15.0 15.0 15.0 15.0 15.0 15.0 15.0 15.0 15.0 15.0 15.0 15.0 15.0
0.1 0.0 0.0 0.1 0.0 1.6 10.4 7.5 9.2 5.6 5.0 15.0 15.0 15.0 15.0 15.0 15.0 15.0 15.0 15.0 15.0 15.0 15.0 15.0 15.0 15.0 15.0 15.0 15.0 15.0 15.0 15.0 15.0 15.0 15.0 15.0 15.0 15.0 15.0 15.0 15.0 15.0 15.0
1.6 0.2 0.1 0.1 0.0 0.1 1.1 8.4 7.9 13.5 15.0 15.0 15.0 15.0 15.0 15.0 15.0 15.0 15.0 15.0 15.0 15.0 15.0 15.0 15.0 15.0 15.0 15.0 15.0 15.0 15.0 15.0 15.0 15.0 15.0 15.0 15.0 15.0 15.0 15.0 15.0 15.0 15.0
14.0 0.9 1.9 0.2 0.1 0.1 4.4 14.9 15.0 15.0 15.0 15.0 15.0 15.0 15.0 15.0 15.0 15.0 15.0 15.0 15.0 15.0 15.0 15.0 15.0 15.0 15.0 15.0 15.0 15.0 15.0 13.7 15.0 15.0 15.0 15.0 15.0 15.0 15.0 15.0 15.0 15.0 15.0
15.0 15.0 15.0 15.0 15.0 15.0 15.0 15.0 15.0 15.0 14.5 15.0 0.4 15.0 15.0 3.3 13.7 6.0 15.0 15.0 15.0 15.0 15.0 15.0 15.0 15.0 15.0 15.0 15.0 15.0 15.0 9.7 12.8 15.0 15.0 15.0 15.0 15.0 15.0 15.0 15.0 15.0 15.0
15.0 15.0 15.0 15.0 15.0 8.0 14.9 15.0 13.4 15.0 15.0 15.0 9.0 13.2 15.0 10.0 0.3 7.6 15.0 15.0 15.0 15.0 15.0 15.0 15.0 15.0 15.0 15.0 15.0 15.0 15.0 15.0 15.0 15.0 15.0 15.0 15.0 15.0 15.0 15.0 15.0 15.0 15.0
15.0 15.0 15.0 15.0 15.0 15.0 15.0 13.0 7.0 1.0 8.8 14.1 10.8 0.2 0.1 0.1 3.4 13.0 15.0 15.0 15.0 15.0 15.0 15.0 15.0 15.0 15.0 15.0 15.0 15.0 15.0 15.0 15.0 15.0 15.0 15.0 15.0 15.0 15.0 15.0 15.0 15.0 15.0
15.0 15.0 2.3 3.8 2.5 15.0 15.0 15.0 0.2 0.1 0.5 9.0 0.3 0.1 0.1 0.1 1.3 1.9 12.0 15.0 15.0 15.0 15.0 15.0 15.0 15.0 15.0 15.0 15.0 15.0 15.0 15.0 15.0 15.0 15.0 15.0 15.0 15.0 15.0 15.0 15.0 15.0 15.0
0.2 0.1 0.1 0.1 0.2 13.9 15.0 15.0 2.2 0.1 0.1 0.2 0.1 0.1 0.1 0.1 0.5 1.4 1.0 14.5 15.0 15.0 15.0 15.0 15.0 15.0 13.2 8.9 11.8 1.0 6.7 15.0 15.0 15.0 15.0 15.0 15.0 15.0 15.0 15.0 15.0 15.0 15.0
0.2 0.1 0.1 0.2 9.3 6.8 15.0 15.0 0.3 1.0 15.0 7.9 12.0 0.5 0.1 0.1 0.1 1.4 1.1 1.5 7.4 15.0 13.3 15.0 13.4 14.8 8.4 11.6 11.6 15.0 13.1 15.0 15.0 15.0 15.0 15.0 15.0 15.0 15.0 15.0 15.0 15.0 15.0
0.1 0.1 0.1 0.1 0.0 0.1 0.2 0.0 0.0 0.1 0.0 0.1 1.4 0.2 0.1 0.1 0.1 1.2 3.7 4.5 15.0 15.0 15.0 15.0 15.0 15.0 15.0 15.0 15.0 15.0 15.0 15.0 15.0 15.0 15.0 15.0 15.0 15.0 15.0 15.0 15.0 15.0 15.0
7.7 14.6 6.4 0.2 0.2 0.2 0.1 0.2 0.1 0.0 0.1 0.1 0.1 0.1 0.1 0.3 14.5 12.0 2.4 11.7 15.0 15.0 12.9 15.0 15.0 15.0 15.0 15.0 15.0 15.0 15.0 15.0 15.0 15.0 15.0 15.0 15.0 15.0 15.0 15.0 15.0 15.0 15.0
12.8 2.4 5.4 1.0 0.5 0.2 0.2 1.0 0.4 0.6 0.5 0.1 0.1 0.1 0.1 0.7 1.1 1.2 8.3 3.3 0.1 0.6 6.9 15.0 15.0 15.0 15.0 15.0 15.0 15.0 15.0 15.0 15.0 15.0 15.0 15.0 15.0 15.0 15.0 15.0 15.0 15.0 15.0
0.4 0.5 0.3 0.2 0.2 0.9 0.6 0.2 0.2 0.2 0.1 0.1 0.1 0.1 0.1 0.3 1.0 2.1 1.7 1.3 1.5 5.4 14.9 15.0 15.0 15.0 15.0 15.0 15.0 15.0 15.0 15.0 15.0 15.0 15.0 15.0 15.0 15.0 15.0 15.0 15.0 15.0 15.0
0.6 0.8 7.0 12.1 4.2 7.3 1.8 0.4 0.3 0.2 0.1 0.1 0.1 0.1 0.1 0.1 0.1 0.5 1.2 2.3 8.1 15.0 15.0 15.0 15.0 15.0 15.0 15.0 15.0 15.0 15.0 15.0 15.0 15.0 15.0 15.0 15.0 15.0 15.0 15.0 15.0 15.0 15.0
15.0 1.0 0.3 0.2 0.2 0.3 1.2 0.7 0.1 0.2 0.1 0.1 0.1 0.1 2.5 6.3 4.4 5.9 7.2 8.5 14.0 15.0 15.0 15.0 15.0 15.0 15.0 15.0 15.0 15.0 15.0 14.8 15.0 15.0 15.0 15.0 15.0 15.0 15.0 15.0 15.0 15.0 15.0
12.0 0.4 0.3 0.2 0.2 0.2 0.3 0.3 0.2 0.2 0.1 0.2 0.2 2.3 14.2 14.9 15.0 12.8 12.7 15.0 15.0 15.0 15.0 15.0 15.0 15.0 15.0 15.0 15.0 15.0 15.0 14.7 15.0 15.0 15.0 15.0 15.0 15.0 15.0 15.0 15.0 15.0 15.0
1.2 0.5 0.6 0.9 1.4 0.3 0.4 2.2 4.7 7.1 5.8 6.8 5.9 2.8 1.4 0.8 0.5 0.6 2.2 5.9 15.0 15.0 15.0 15.0 15.0 15.0 15.0 15.0 15.0 15.0 15.0 15.0 15.0 15.0 15.0 15.0 15.0 15.0 15.0 15.0 15.0 15.0 15.0
14.3 11.2 13.1 7.3 8.8 15.0 9.9 7.0 15.0 15.0 15.0 6.5 1.3 1.6 1.0 0.5 0.4 0.6 0.8 0.6 0.6 0.5 0.9 15.0 15.0 15.0 15.0 15.0 15.0 15.0 15.0 15.0 15.0 15.0 15.0 15.0 15.0 15.0 15.0 15.0 15.0 15.0 15.0
15.0 12.4 9.6 7.6 3.7 4.9 8.6 15.0 14.6 14.4 8.0 2.6 1.1 0.6 0.5 0.6 0.9 0.6 0.9 1.4 2.4 1.7 14.4 15.0 15.0 15.0 15.0 15.0 15.0 15.0 15.0 15.0 15.0 15.0 15.0 15.0 15.0 15.0 15.0 15.0 15.0 15.0 15.0
0.3 1.0 0.9 1.3 2.2 3.6 2.7 3.7 2.9 2.0 1.2 0.9 0.8 0.6 1.0 1.3 0.8 0.5 1.6 15.0 15.0 15.0 15.0 15.0 15.0 15.0 15.0 15.0 15.0 15.0 15.0 15.0 15.0 15.0 15.0 15.0 15.0 15.0 15.0 15.0 15.0 15.0 15.0